Location: Meanaryar
(48.4161°N, 4.7315°W)
Time: 09:32:48
(UTC+00:00)

Cosmos 1092 Rocket - Pass Details

Date: 22 January 2021
Orbit: 954 x 995 km, 83.0° (Epoch: 02 March)

Event Time Altitude Azimuth Distance (km) Brightness Sun altitude
Rises 21:15:44 0° 249° (WSW) 3,652 7.6 -41.5°
Reaches altitude 10° 21:19:52 10° 276° (W) 2,702 6.9 -42.1°
Maximum altitude 21:22:39 13° 303° (WNW) 2,474 6.7 -42.5°
Drops below altitude 10° 21:25:27 10° 331° (NNW) 2,700 6.7 -43.0°
Sets 21:29:37 0° 358° (N) 3,647 7.2 -43.6°
